Change the Weather History Date:

Saturday, January 11, 2014

  Actual Average (KPKB) Record (KPKB)
Temperature  
Mean Temperature 47 °F 31 °F  
Max Temperature 56 °F 40 °F 70 °F (1890)
Min Temperature 37 °F 23 °F -11 °F (1893)
Degree Days  
Heating Degree Days 18 34  
Month to date heating degree days 367  
Cooling Degree Days 0 0  
Month to date cooling degree days 0  
Year to date cooling degree days 0  
Moisture  
Dew Point 42 °F    
Average Humidity 79    
Maximum Humidity 97    
Minimum Humidity 51    
Precipitation  
Precipitation 0.00 in 0.09 in 0.78 in (2005)
Sea Level Pressure  
Sea Level Pressure 29.62 in    
Wind  
Wind Speed 9 mph (SW)    
Max Wind Speed 28 mph    
Max Gust Speed 41 mph    
Visibility 10 miles    
Events Rain    
T = Trace of Precipitation, MM = Missing Value Source: NWS Daily Summary

Daily Weather History Graph

Daily Weather History Graph

Search for Another Location

Airport or City:

Trip Planner

Search our weather history database for the weather conditions in past years. The results will help you decide how hot, cold, wet, or windy it might be!

Date:

Astronomy

Jan. 11, 2014 Rise Set
Actual Time 7:47 AM EST 5:26 PM EST
Civil Twilight 7:18 AM EST 5:55 PM EST
Nautical Twilight 6:45 AM EST 6:28 PM EST
Astronomical Twilight 6:13 AM EST 7:01 PM EST
Moon 2:09 PM EST (1/11) 3:52 AM EST (1/11)
Length of Visible Light 10h 37m
Length of Day
9h 38m
Waxing Gibbous, 83% of the Moon is Illuminated
Jan 11
Waxing Gibbous
Jan 15
Full
Jan 24
Last Quarter
Jan 30
New
Feb 6
First Quarter

Hourly Weather History & Observations

Time (EST) Temp. Windchill Dew Point Humidity Pressure Visibility Wind Dir Wind Speed Gust Speed Precip Events Conditions
12:15 AM 49.3 °F - 45.0 °F 85% 29.82 in 10.0 mi South 4.6 mph - N/A   Overcast
12:35 AM 50.0 °F - 45.1 °F 83% 29.80 in 10.0 mi South 5.8 mph - N/A   Overcast
12:55 AM 50.7 °F - 45.7 °F 83% 29.79 in 10.0 mi South 6.9 mph - N/A   Overcast
1:15 AM 51.8 °F - 46.2 °F 81% 29.78 in 10.0 mi South 4.6 mph - N/A   Overcast
1:35 AM 52.2 °F - 46.4 °F 81% 29.75 in 10.0 mi SSE 5.8 mph - N/A   Mostly Cloudy
1:55 AM 52.3 °F - 46.6 °F 81% 29.73 in 10.0 mi SE 5.8 mph - N/A   Scattered Clouds
2:15 AM 52.7 °F - 46.9 °F 81% 29.72 in 10.0 mi SSE 5.8 mph - N/A   Scattered Clouds
2:35 AM 52.7 °F - 46.9 °F 81% 29.71 in 10.0 mi South 4.6 mph - N/A   Scattered Clouds
2:55 AM 52.7 °F - 47.1 °F 81% 29.70 in 10.0 mi SSE 4.6 mph - N/A   Clear
3:15 AM 53.2 °F - 47.5 °F 81% 29.68 in 10.0 mi SSE 4.6 mph - N/A   Mostly Cloudy
3:35 AM 53.1 °F - 47.7 °F 82% 29.66 in 10.0 mi SSE 5.8 mph - N/A   Mostly Cloudy
3:55 AM 54.7 °F - 48.6 °F 80% 29.64 in 10.0 mi SSE 9.2 mph - N/A   Overcast
4:15 AM 55.8 °F - 49.1 °F 78% 29.61 in 10.0 mi SSE 8.1 mph - N/A   Overcast
4:35 AM 55.6 °F - 49.1 °F 79% 29.60 in 10.0 mi SSW 3.5 mph - N/A   Overcast
4:55 AM 53.2 °F - 47.8 °F 82% 29.63 in 10.0 mi West 11.5 mph 20.7 mph N/A   Overcast
5:15 AM 52.5 °F - 48.7 °F 87% 29.64 in 7.0 mi WNW 6.9 mph - N/A Rain Heavy Rain
5:35 AM 51.3 °F - 49.1 °F 92% 29.64 in 5.0 mi West 3.5 mph - N/A Rain Heavy Rain
5:55 AM 50.5 °F - 49.1 °F 95% 29.63 in 5.0 mi Calm Calm - N/A Rain Rain
6:15 AM 50.5 °F - 49.1 °F 95% 29.62 in 5.0 mi Calm Calm - N/A Rain Rain
6:35 AM 49.5 °F - 48.2 °F 95% 29.61 in 5.0 mi South 4.6 mph - N/A Rain Rain
6:55 AM 49.6 °F - 48.4 °F 95% 29.62 in 10.0 mi South 4.6 mph - N/A Rain Rain
7:15 AM 50.2 °F - 49.1 °F 96% 29.60 in 10.0 mi South 3.5 mph - N/A Rain Rain
7:35 AM 50.0 °F - 48.7 °F 95% 29.60 in 10.0 mi South 5.8 mph - N/A Rain Light Rain
7:55 AM 50.0 °F - 49.1 °F 97% 29.60 in 7.0 mi South 4.6 mph - N/A Rain Rain
8:15 AM 50.2 °F - 49.1 °F 96% 29.59 in 7.0 mi South 5.8 mph - N/A Rain Rain
8:35 AM 50.0 °F - 49.1 °F 97% 29.56 in 10.0 mi SSE 5.8 mph - N/A Rain Rain
8:55 AM 50.0 °F - 49.1 °F 97% 29.56 in 10.0 mi SSE 8.1 mph - N/A Rain Light Rain
9:15 AM 50.4 °F - 49.3 °F 96% 29.54 in 10.0 mi SSE 9.2 mph - N/A Rain Light Rain
9:35 AM 50.5 °F - 49.5 °F 96% 29.55 in 10.0 mi South 6.9 mph - N/A Rain Light Rain
9:55 AM 51.3 °F - 50.2 °F 96% 29.55 in 10.0 mi South 6.9 mph - N/A Rain Rain
10:15 AM 51.4 °F - 50.2 °F 95% 29.52 in 10.0 mi SSE 10.4 mph 18.4 mph N/A Rain Light Rain
10:35 AM 52.0 °F - 50.5 °F 95% 29.56 in 10.0 mi SSW 6.9 mph - N/A   Overcast
10:55 AM 52.2 °F - 50.5 °F 94% 29.55 in 10.0 mi SSW 10.4 mph 18.4 mph N/A   Overcast
11:15 AM 52.7 °F - 50.9 °F 94% 29.54 in 10.0 mi South 5.8 mph - N/A   Overcast
11:35 AM 52.7 °F - 50.5 °F 92% 29.52 in 10.0 mi South 9.2 mph - N/A   Overcast
11:55 AM 52.7 °F - 50.5 °F 92% 29.52 in 10.0 mi SW 11.5 mph 17.3 mph N/A   Overcast
12:15 PM 53.6 °F - 50.4 °F 89% 29.50 in 10.0 mi SW 10.4 mph - N/A   Mostly Cloudy
12:35 PM 54.0 °F - 49.8 °F 86% 29.48 in 10.0 mi SW 12.7 mph 17.3 mph N/A   Overcast
12:55 PM 54.1 °F - 49.5 °F 84% 29.47 in 10.0 mi SW 10.4 mph 18.4 mph N/A   Overcast
1:15 PM 55.2 °F - 49.3 °F 80% 29.46 in 10.0 mi SW 15.0 mph 18.4 mph N/A   Overcast
1:35 PM 55.0 °F - 46.6 °F 73% 29.45 in 10.0 mi SW 19.6 mph 27.6 mph N/A   Mostly Cloudy
1:55 PM 55.4 °F - 43.7 °F 65% 29.46 in 10.0 mi WSW 20.7 mph 32.2 mph N/A   Scattered Clouds
2:15 PM 55.8 °F - 41.0 °F 58% 29.46 in 10.0 mi WSW 23.0 mph 31.1 mph N/A   Clear
2:35 PM 56.1 °F - 39.2 °F 53% 29.47 in 10.0 mi WSW 17.3 mph 31.1 mph N/A   Scattered Clouds
2:55 PM 56.3 °F - 38.1 °F 51% 29.46 in 10.0 mi SW 18.4 mph 29.9 mph N/A   Mostly Cloudy
3:15 PM 54.5 °F - 37.8 °F 53% 29.47 in 10.0 mi WSW 21.9 mph 28.8 mph N/A   Overcast
3:35 PM 53.2 °F - 40.3 °F 61% 29.49 in 10.0 mi West 27.6 mph 34.5 mph N/A   Overcast
3:55 PM 51.3 °F - 38.8 °F 63% 29.51 in 10.0 mi WSW 24.2 mph 34.5 mph N/A   Light Drizzle
4:15 PM 50.7 °F - 37.4 °F 60% 29.52 in 10.0 mi West 20.7 mph 41.4 mph N/A   Overcast
4:35 PM 48.7 °F - 38.8 °F 69% 29.54 in 10.0 mi West 17.3 mph 31.1 mph N/A   Overcast
4:55 PM 47.7 °F - 38.3 °F 70% 29.56 in 10.0 mi West 20.7 mph 29.9 mph N/A   Overcast
5:15 PM 46.2 °F 38.7 °F 34.7 °F 64% 29.57 in 10.0 mi West 19.6 mph 33.4 mph N/A   Overcast
5:35 PM 45.0 °F 37.9 °F 33.8 °F 65% 29.58 in 10.0 mi West 16.1 mph 32.2 mph N/A   Overcast
5:55 PM 43.7 °F 35.4 °F 33.6 °F 68% 29.59 in 10.0 mi West 19.6 mph 24.2 mph N/A   Overcast
6:15 PM 43.7 °F 37.7 °F 32.9 °F 66% 29.60 in 10.0 mi West 11.5 mph 19.6 mph N/A   Overcast
6:35 PM 43.3 °F 36.8 °F 32.7 °F 66% 29.62 in 10.0 mi West 12.7 mph 21.9 mph N/A   Overcast
6:55 PM 42.8 °F 37.0 °F 32.9 °F 68% 29.63 in 10.0 mi West 10.4 mph - N/A   Overcast
7:15 PM 42.4 °F 37.5 °F 32.7 °F 68% 29.64 in 10.0 mi WSW 8.1 mph - N/A   Overcast
7:35 PM 42.4 °F 35.3 °F 32.5 °F 68% 29.65 in 10.0 mi WSW 13.8 mph 21.9 mph N/A   Overcast
7:55 PM 42.3 °F 35.9 °F 32.9 °F 69% 29.66 in 10.0 mi West 11.5 mph - N/A   Overcast
8:15 PM 42.1 °F 34.2 °F 33.1 °F 70% 29.67 in 10.0 mi WSW 16.1 mph 24.2 mph N/A   Overcast
8:35 PM 41.9 °F 35.0 °F 32.9 °F 70% 29.69 in 10.0 mi WSW 12.7 mph 21.9 mph N/A   Overcast
8:55 PM 41.7 °F 36.7 °F 33.1 °F 71% 29.71 in 10.0 mi West 8.1 mph - N/A   Overcast
9:15 PM 41.2 °F 33.7 °F 32.4 °F 71% 29.72 in 10.0 mi West 13.8 mph 23.0 mph N/A   Overcast
9:35 PM 40.6 °F 35.4 °F 32.2 °F 72% 29.74 in 10.0 mi WSW 8.1 mph - N/A   Overcast
9:55 PM 40.1 °F 32.7 °F 32.0 °F 73% 29.74 in 10.0 mi West 12.7 mph 21.9 mph N/A   Overcast
10:15 PM 39.6 °F 29.7 °F 31.1 °F 72% 29.76 in 10.0 mi West 20.7 mph 27.6 mph N/A   Overcast
10:35 PM 39.2 °F 30.8 °F 30.2 °F 70% 29.77 in 10.0 mi West 15.0 mph 23.0 mph N/A   Overcast
10:55 PM 38.8 °F 30.4 °F 29.8 °F 70% 29.77 in 10.0 mi WSW 15.0 mph 19.6 mph N/A   Overcast
11:15 PM 38.5 °F 29.6 °F 28.9 °F 69% 29.79 in 10.0 mi West 16.1 mph 23.0 mph N/A   Overcast
11:35 PM 38.1 °F 28.8 °F 28.0 °F 67% 29.79 in 10.0 mi West 17.3 mph 25.3 mph N/A   Overcast
11:55 PM 37.6 °F 29.6 °F 27.5 °F 67% 29.80 in 10.0 mi West 12.7 mph 25.3 mph N/A   Overcast